DIUOQ EDDH-ZZZZ

Flight info

Callsign DIUOQ
Flight time N/A
Altitude
Route
Aircraft DA62

Departure

Time 2026-05-06 18:32
Airport Hamburg Helmut Schmidt Airport (EDDH)

Arrival

Time N/A
Airport ZZZZ
Time Latitude Longitude Altitude Speed Heading
2026-05-06 18:19 53.62717 9.98794 32 ft 0 kts 63°
2026-05-06 18:24 53.62718 9.98798 32 ft 1 kts 55°
2026-05-06 18:24 53.62749 9.98832 32 ft 7 kts 343°
2026-05-06 18:24 53.62796 9.98777 32 ft 8 kts 271°
2026-05-06 18:25 53.62755 9.98681 32 ft 17 kts 231°
2026-05-06 18:25 53.62682 9.98536 32 ft 13 kts 227°
2026-05-06 18:25 53.62694 9.98423 31 ft 10 kts 321°
2026-05-06 18:25 53.62709 9.98403 31 ft 0 kts 322°
2026-05-06 18:30 53.62729 9.98376 31 ft 9 kts 321°
2026-05-06 18:30 53.62791 9.98327 31 ft 8 kts 33°
2026-05-06 18:30 53.62796 9.98335 32 ft 0 kts 53°
2026-05-06 18:30 53.62884 9.98518 33 ft 52 kts 48°
2026-05-06 18:31 53.63186 9.99123 95 ft 76 kts 46°
2026-05-06 18:31 53.63209 9.99931 201 ft 89 kts 128°
2026-05-06 18:31 53.62809 10.00516 458 ft 78 kts 129°
2026-05-06 18:31 53.62410 10.01143 607 ft 87 kts 130°
2026-05-06 18:32 53.61869 10.01805 776 ft 105 kts 152°
2026-05-06 18:32 53.61109 10.01677 946 ft 124 kts 214°
2026-05-06 18:32 53.60514 10.00548 1041 ft 135 kts 229°
2026-05-06 18:32 53.59916 9.99311 1096 ft 141 kts 230°
2026-05-06 18:33 53.59264 9.97994 1129 ft 146 kts 231°
2026-05-06 18:33 53.58653 9.96650 1184 ft 148 kts 234°
2026-05-06 18:33 53.58090 9.95181 1246 ft 147 kts 252°
2026-05-06 18:33 53.58130 9.93562 1304 ft 140 kts 304°
2026-05-06 18:34 53.58769 9.92347 1299 ft 137 kts 329°
2026-05-06 18:34 53.59630 9.91879 1255 ft 131 kts 14°
2026-05-06 18:34 53.60235 9.92825 1237 ft 120 kts 60°
2026-05-06 18:34 53.60574 9.93954 1192 ft 97 kts 65°
2026-05-06 18:35 53.60929 9.94640 999 ft 74 kts 44°
2026-05-06 18:35 53.61289 9.95298 634 ft 82 kts 52°
2026-05-06 18:35 53.61663 9.96033 272 ft 88 kts 51°
2026-05-06 18:35 53.62033 9.96794 58 ft 81 kts 49°
2026-05-06 18:36 53.62339 9.97411 23 ft 62 kts 50°
2026-05-06 18:36 53.62694 9.98134 52 ft 96 kts 47°
2026-05-06 18:36 53.63086 9.99104 189 ft 111 kts 99°
2026-05-06 18:36 53.62553 9.99903 504 ft 118 kts 142°
2026-05-06 18:37 53.61805 10.00227 898 ft 120 kts 207°
2026-05-06 18:37 53.61182 9.99081 892 ft 150 kts 233°
2026-05-06 18:37 53.60501 9.97661 896 ft 161 kts 229°
2026-05-06 18:37 53.59769 9.96252 880 ft 153 kts 226°
2026-05-06 18:38 53.59087 9.94946 918 ft 147 kts 227°
2026-05-06 18:38 53.58402 9.93683 1037 ft 136 kts 224°
2026-05-06 18:38 53.57740 9.92580 1037 ft 142 kts 225°
2026-05-06 18:38 53.57075 9.91366 1077 ft 139 kts 227°
2026-05-06 18:39 53.56568 9.90011 1297 ft 135 kts 252°
2026-05-06 18:39 53.56601 9.88609 1649 ft 120 kts 300°
2026-05-06 18:39 53.57075 9.87849 1971 ft 77 kts 30°
2026-05-06 18:40 53.58228 9.89088 1940 ft 105 kts 51°
2026-05-06 18:40 53.58714 9.90092 1826 ft 115 kts 50°
2026-05-06 18:40 53.59239 9.91132 1627 ft 118 kts 49°
2026-05-06 18:40 53.59791 9.92214 1445 ft 125 kts 49°
2026-05-06 18:41 53.60336 9.93350 1194 ft 123 kts 50°
2026-05-06 18:41 53.60873 9.94424 817 ft 120 kts 58°
2026-05-06 18:41 53.61366 9.95451 498 ft 100 kts 59°
2026-05-06 18:41 53.61747 9.96202 200 ft 81 kts 49°
2026-05-06 18:42 53.62080 9.96875 35 ft 73 kts 49°
2026-05-06 18:42 53.62369 9.97477 23 ft 79 kts 50°
2026-05-06 18:42 53.62711 9.98290 120 ft 94 kts 84°
2026-05-06 18:42 53.62303 9.99071 425 ft 99 kts 136°
2026-05-06 18:43 53.61678 9.99386 779 ft 105 kts 201°
2026-05-06 18:43 53.61014 9.98529 806 ft 135 kts 220°
2026-05-06 18:43 53.60316 9.97410 944 ft 145 kts 222°
2026-05-06 18:43 53.59457 9.96597 1056 ft 142 kts 179°
2026-05-06 18:44 53.58632 9.97230 1078 ft 131 kts 113°
2026-05-06 18:44 53.58709 9.98596 1091 ft 125 kts 44°
2026-05-06 18:44 53.59538 9.98473 1076 ft 145 kts 318°
2026-05-06 18:44 53.59607 9.96842 1048 ft 162 kts 229°
2026-05-06 18:45 53.58591 9.96227 1174 ft 150 kts 186°
2026-05-06 18:45 53.57727 9.95383 1441 ft 140 kts 236°
2026-05-06 18:45 53.57604 9.93879 1610 ft 132 kts 303°
2026-05-06 18:45 53.58262 9.92826 1605 ft 139 kts 334°
2026-05-06 18:46 53.59167 9.92392 1674 ft 137 kts
2026-05-06 18:46 53.60096 9.92744 1646 ft 141 kts 33°
2026-05-06 18:46 53.60745 9.93933 1259 ft 144 kts 56°
2026-05-06 18:46 53.61305 9.95308 643 ft 150 kts 50°
2026-05-06 18:47 53.61959 9.96618 194 ft 146 kts 50°
2026-05-06 18:47 53.62483 9.97954 294 ft 137 kts 71°
2026-05-06 18:47 53.62398 9.99349 658 ft 127 kts 117°
2026-05-06 18:47 53.61760 10.00332 927 ft 130 kts 146°
2026-05-06 18:48 53.60834 10.00261 1009 ft 153 kts 210°
2026-05-06 18:48 53.59989 9.99073 1087 ft 161 kts 226°
2026-05-06 18:48 53.59284 9.97554 1108 ft 161 kts 246°
2026-05-06 18:48 53.59172 9.95803 1179 ft 148 kts 287°
2026-05-06 18:49 53.59705 9.94448 1152 ft 139 kts 331°
2026-05-06 18:49 53.60558 9.94191 953 ft 117 kts 17°
2026-05-06 18:49 53.61139 9.94972 589 ft 108 kts 57°
2026-05-06 18:49 53.61532 9.95813 361 ft 85 kts 47°
2026-05-06 18:50 53.61889 9.96491 119 ft 80 kts 50°
2026-05-06 18:50 53.62249 9.97230 91 ft 88 kts 52°
2026-05-06 18:50 53.62340 9.98166 243 ft 102 kts 103°
2026-05-06 18:50 53.62064 9.99308 479 ft 110 kts 120°
2026-05-06 18:51 53.61386 9.99843 778 ft 122 kts 180°
2026-05-06 18:51 53.60569 9.99255 1005 ft 133 kts 204°
2026-05-06 18:51 53.59679 9.99297 987 ft 141 kts 135°
2026-05-06 18:51 53.59662 10.00624 1127 ft 126 kts 40°
2026-05-06 18:52 53.60489 10.00325 1092 ft 156 kts 309°
2026-05-06 18:52 53.60402 9.98467 998 ft 178 kts 232°
2026-05-06 18:52 53.59311 9.97784 961 ft 166 kts 160°
2026-05-06 18:52 53.58945 9.99029 1260 ft 121 kts 68°
2026-05-06 18:53 53.59648 9.99385 1415 ft 132 kts 330°
2026-05-06 18:53 53.59895 9.97666 1192 ft 173 kts 257°
2026-05-06 18:53 53.59325 9.95941 1127 ft 159 kts 235°
2026-05-06 18:53 53.58836 9.94347 1082 ft 149 kts 261°
2026-05-06 18:54 53.58975 9.92707 1102 ft 131 kts 314°
2026-05-06 18:54 53.59703 9.92319 1181 ft 100 kts 22°
2026-05-06 18:54 53.60238 9.93023 977 ft 100 kts 53°
2026-05-06 18:54 53.60663 9.93982 805 ft 89 kts 51°
2026-05-06 18:55 53.61042 9.94759 575 ft 80 kts 49°
2026-05-06 18:55 53.61391 9.95496 385 ft 80 kts 47°
2026-05-06 18:55 53.61755 9.96230 189 ft 81 kts 49°
2026-05-06 18:55 53.62111 9.96919 67 ft 76 kts 53°
2026-05-06 18:56 53.62416 9.97565 23 ft 60 kts 50°
2026-05-06 18:56 53.62637 9.98006 26 ft 39 kts 50°
2026-05-06 18:56 53.62757 9.98265 30 ft 13 kts 76°
2026-05-06 18:56 53.62708 9.98406 31 ft 14 kts 139°
2026-05-06 18:57 53.62674 9.98505 32 ft 7 kts 74°
2026-05-06 18:57 53.62714 9.98599 32 ft 10 kts 51°
2026-05-06 18:57 53.62754 9.98681 32 ft 6 kts 57°
2026-05-06 18:57 53.62730 9.98723 32 ft 6 kts 142°
2026-05-06 18:58 53.62715 9.98788 32 ft 5 kts 63°
2026-05-06 18:58 53.62717 9.98795 32 ft 0 kts 62°